Location: Albany
(35.0000°S, 118.0000°E)
Time: 11:25:24
(UTC-04:00)

Transit 2A - Visible Passes

Search period start: 26 May 2015 00:00
Search period end: 05 June 2015 00:00
Orbit: 593 x 968 km, 66.7° (Epoch: 25 May)

Date Brightness Start Highest point End Pass type
(mag) Time Alt. Az. Time Alt. Az. Time Alt. Az.
29 May 8.5 07:45:11 10° SSW 07:45:24 11° SSW 07:45:24 11° SSW visible
30 May 7.7 07:11:34 10° SSW 07:13:17 20° S 07:13:17 20° S visible
31 May 7.1 06:38:05 10° S 06:41:28 27° SE 06:41:28 27° SE visible
31 May 8.5 08:20:57 10° SW 08:22:04 16° SW 08:22:04 16° SW visible
01 Jun 7.3 06:04:47 10° S 06:08:37 21° SE 06:10:09 19° ESE visible
01 Jun 7.1 07:46:52 10° SW 07:50:48 44° WSW 07:50:48 44° WSW visible
02 Jun 7.7 05:31:49 10° SSE 05:34:33 14° SE 05:37:39 10° E visible
02 Jun 6.1 07:12:57 10° SSW 07:18:20 80° WNW 07:20:43 37° NNE visible
03 Jun 6.0 06:39:11 10° SSW 06:44:31 70° ESE 06:50:24 10° NNE visible
03 Jun 8.9 08:24:26 10° WSW 08:27:27 14° WNW 08:30:15 10° NW visible
04 Jun 6.3 06:05:31 10° SSW 06:10:39 47° ESE 06:16:19 10° NE visible
04 Jun 8.4 07:49:30 10° WSW 07:53:43 22° WNW 07:58:01 10° NNW visible
